Location: Home
(42.5358°N, 72.7383°W)
Time: 06:15:15
(UTC-05:00)

Transit 4A - Pass Details

Date: 08 December 2021
Orbit: 863 x 981 km, 66.8° (Epoch: 26 January)

Event Time Altitude Azimuth Distance (km) Brightness Sun altitude
Rises 17:19:58 0° 189° (S) 3,441 11.3 -11.2°
Reaches altitude 10° 17:22:30 10° 183° (S) 2,517 10.5 -11.6°
Maximum altitude 17:28:00 45° 112° (ESE) 1,188 8.2 -12.5°
Enters shadow 17:32:41 15° 45° (NE) 2,252 9.4 -13.4°
